GTH693 KAPC-KLAX

Flight info

Callsign GTH693
Flight time N/A
Altitude 19000
Route LIZRD5 CROIT MYJAW BURGL IRNMN2
Aircraft C208/L-SDFGR/C

Departure

Time 2026-04-29 23:48
Airport Napa County Airport (KAPC)

Arrival

Time N/A
Airport Los Angeles International Airport (KLAX)
Time Latitude Longitude Altitude Speed Heading
2026-04-29 23:40 38.21610 -122.27365 21 ft 0 kts 245°
2026-04-29 23:43 38.21605 -122.27380 21 ft 4 kts 253°
2026-04-29 23:44 38.21626 -122.27451 20 ft 14 kts 303°
2026-04-29 23:44 38.21707 -122.27561 18 ft 21 kts 332°
2026-04-29 23:44 38.21846 -122.27651 16 ft 23 kts 333°
2026-04-29 23:44 38.21964 -122.27713 19 ft 14 kts 16°
2026-04-29 23:45 38.22054 -122.27670 22 ft 14 kts 20°
2026-04-29 23:45 38.22148 -122.27626 25 ft 15 kts 20°
2026-04-29 23:45 38.22210 -122.27631 28 ft 8 kts 335°
2026-04-29 23:45 38.22262 -122.27663 27 ft 9 kts 326°
2026-04-29 23:46 38.22294 -122.27730 27 ft 9 kts 288°
2026-04-29 23:46 38.22292 -122.27802 27 ft 8 kts 229°
2026-04-29 23:46 38.22214 -122.27850 26 ft 31 kts 200°
2026-04-29 23:46 38.21871 -122.28014 22 ft 69 kts 201°
2026-04-29 23:47 38.21364 -122.28272 74 ft 83 kts 203°
2026-04-29 23:47 38.20796 -122.28515 217 ft 86 kts 181°
2026-04-29 23:47 38.20393 -122.27965 418 ft 106 kts 99°
2026-04-29 23:47 38.20750 -122.27083 518 ft 126 kts 35°
2026-04-29 23:48 38.21592 -122.26951 702 ft 122 kts 341°
2026-04-29 23:48 38.22282 -122.27461 872 ft 105 kts 286°
2026-04-29 23:48 38.22778 -122.28029 1047 ft 119 kts 344°
2026-04-29 23:48 38.23222 -122.28645 1089 ft 102 kts 258°
2026-04-29 23:49 38.22848 -122.29267 1412 ft 83 kts 220°
2026-04-29 23:49 38.22247 -122.29638 1441 ft 94 kts 217°
2026-04-29 23:49 38.21597 -122.29856 1601 ft 98 kts 202°
2026-04-29 23:49 38.20935 -122.30104 1808 ft 99 kts 205°
2026-04-29 23:50 38.20246 -122.30177 1989 ft 111 kts 161°
2026-04-29 23:50 38.19843 -122.29338 2123 ft 125 kts 87°
2026-04-29 23:50 38.21610 -122.27365 2463 ft 0 kts 245°
2026-04-29 23:55 38.21612 -122.27423 20 ft 15 kts 294°
2026-04-29 23:55 38.21683 -122.27545 18 ft 18 kts 322°
2026-04-29 23:55 38.21804 -122.27622 16 ft 20 kts 320°
2026-04-29 23:55 38.21830 -122.27763 15 ft 16 kts 285°
2026-04-29 23:56 38.21785 -122.27860 14 ft 22 kts 201°
2026-04-29 23:56 38.21458 -122.28020 24 ft 73 kts 199°
2026-04-29 23:56 38.20906 -122.28271 174 ft 87 kts 198°
2026-04-29 23:56 38.20295 -122.28355 441 ft 94 kts 184°
2026-04-29 23:57 38.19541 -122.28400 535 ft 116 kts 188°
2026-04-29 23:57 38.18795 -122.28529 963 ft 107 kts 194°
2026-04-29 23:57 38.18440 -122.28539 989 ft 120 kts 173°